Погода в Выборге

Россия / Санкт-Петербург и Ленинградская область     60°42′36″N   28°44′57″E
темп.,
°C
ветер,
м/с
пор.,
м/с
влажн.,
%
обл.,
%
осадки,
мм/ч
давл.,
гПа
погр.,
м
2 марта, вт
вт200:00+1з4138646 0.1 1011609
03:00−1з4118523 0.1 1012433
06:00−1з411880 0.0 1010494
09:00−1зсз412870 0.0 1012656
12:00+2сз511750 0.0 1013809
15:00+3сз511730 0.0 10151092
18:00+1сз412782 0.0 1017748
21:00−1сз312851 0.0 1018525
3 марта, ср
ср300:00−1зсз311860 0.0 1018431
03:00−1зсз412870 0.0 1018472
06:00−2зсз411890 0.0 1017433
09:00−2зсз411923 0.0 1016451
12:00+1з498249 0.0 1014574
15:00+2зюз4108174 0.0 1012666
18:00+1юз51282100 0.0 1006803
21:00+2зюз51387100 0.0 1002883
4 марта, чт
чт400:00+2зсз51289100 0.1 1000766
03:00−1сз4127099 0.8 1000742
06:00−3сз411750 0.0 1000605
09:00−4сз511760 0.0 1000715
12:00−4ссз5107462 0.0 1001792
15:00−3ссз597280 0.1 10031054
18:00−3ссз5968100 0.1 10031203
21:00−5ссз387695 0.1 1005721
5 марта, пт
пт500:00−6ссз387899 0.0 1006798
03:00−7сз387850 0.0 1006536
06:00−8сз28851 0.0 1006534
09:00−7сз378546 0.1 1007605
12:00−5ссз4676100 0.1 1009869
15:00−5с5864100 0.1 10111182
18:00−6с476138 0.0 10121119
21:00−9ссв377019 0.0 1014667
6 марта, сб
сб600:00−9ссз127821 0.0 1015112
03:00−9з138054 0.0 1015136
06:00−10з229218 0.0 101479
09:00−9зюз24889 0.0 1013202
12:00−6юз467210 0.0 1011482
15:00−5юз596937 0.0 1007745
18:00−5ююз51174100 0.0 1003862
21:00−5ю61370100 0.0 997744